Date String (YYYY-MM-DD hh:mm:ss) UTC,Instrument flags,Ambient pressure (hPa),Sample flow (lpm),Bypass flow (lpm),Sample temperature (°C),Ambient temperature (°C),ASC tube jacket temperature (°C),LED temperature (°C),Box temperature (°C),Sample RH (%),Span deviation,Mass concentration (μg/m³),Mass concentration (μg/m³),Mass concentration (μg/m³)
DateTimeUTC,F1_M11,P_M11,Q1_M11,Q2_M11,T1_M11,T2_M11,T3_M11,T4_M11,T5_M11,U1_M11,ZSPAN_M11,X0_M11,X2_M11,X1_M11
2021-11-07 01:00:00,,0825.3,5.00,0.00,30.0,26.1,00.0,39.1,31.4,05.9,0000.0,0007.63,0002.32,0001.45
2021-11-07 01:01:00,,0825.3,4.99,0.00,29.9,26.3,00.0,39.1,31.3,06.0,0000.0,0007.42,0002.22,0001.41
2021-11-07 01:02:00,,0825.3,5.01,0.00,29.8,26.8,00.0,39.0,31.3,06.0,0000.0,0007.32,0002.16,0001.38
2021-11-07 01:03:00,,0825.3,4.99,0.00,29.8,27.2,00.0,38.9,31.4,06.0,0000.0,0007.14,0002.12,0001.35
2021-11-07 01:04:00,,0825.3,5.02,0.00,29.8,27.5,00.0,38.9,31.4,06.0,0000.0,0006.54,0002.01,0001.33
2021-11-07 01:05:00,,0825.3,5.00,0.00,29.8,27.8,00.0,38.9,31.5,06.0,0000.0,0006.53,0001.94,0001.29
2021-11-07 01:06:00,,0825.3,4.99,0.00,29.8,28.1,00.0,38.9,31.5,06.0,0000.0,0005.62,0001.85,0001.25
2021-11-07 01:07:00,,0825.3,5.00,0.00,29.8,28.3,00.0,38.9,31.5,06.0,0000.0,0004.99,0001.78,0001.22
2021-11-07 01:08:00,,0825.3,5.00,0.00,29.8,28.4,00.0,38.9,31.6,05.9,0000.0,0004.99,0001.70,0001.17
2021-11-07 01:09:00,,0825.3,5.01,0.00,29.9,28.5,00.0,38.9,31.6,06.0,0000.0,0004.63,0001.64,0001.14
2021-11-07 01:10:00,,0825.4,5.00,0.00,29.9,28.6,00.0,38.9,31.7,06.0,0000.0,0004.11,0001.59,0001.10
2021-11-07 01:11:00,,0825.3,4.99,0.00,29.9,28.7,00.0,38.9,31.7,05.9,0000.0,0004.04,0001.58,0001.09
2021-11-07 01:12:00,,0825.4,5.00,0.00,29.9,28.8,00.0,38.9,31.7,06.0,0000.0,0004.21,0001.61,0001.09
2021-11-07 01:13:00,,0825.3,5.01,0.00,29.9,28.8,00.0,38.9,31.7,06.0,0000.0,0004.17,0001.57,0001.07
2021-11-07 01:14:00,,0825.3,4.99,0.00,30.0,28.9,00.0,38.9,31.8,06.0,0000.0,0005.21,0001.55,0001.05
2021-11-07 01:15:00,,0825.3,5.00,0.00,30.0,28.9,00.0,38.9,31.7,06.0,0000.0,0005.68,0001.54,0001.03
2021-11-07 01:16:00,,0825.4,4.99,0.00,30.0,29.0,00.0,38.9,31.8,06.0,0000.0,0005.52,0001.48,0001.02
2021-11-07 01:17:00,,0825.4,4.99,0.00,30.0,29.0,00.0,38.9,31.8,05.9,0000.0,0005.75,0001.46,0001.01
2021-11-07 01:18:00,,0825.3,5.00,0.00,30.0,29.1,00.0,39.0,31.8,05.9,0000.0,0005.38,0001.44,0001.00
2021-11-07 01:19:00,,0825.3,5.00,0.00,30.1,29.1,00.0,39.0,31.9,05.9,0000.0,0004.97,0001.42,0001.00
2021-11-07 01:20:00,,0825.3,5.00,0.00,30.1,29.1,00.0,39.0,31.9,05.9,0000.0,0004.95,0001.41,0000.99
2021-11-07 01:21:00,,0825.3,4.99,0.00,30.1,29.2,00.0,39.0,31.9,05.9,0000.0,0004.84,0001.40,0000.99
2021-11-07 01:22:00,,0825.3,5.01,0.00,30.1,29.2,00.0,39.0,31.9,05.9,0000.0,0004.70,0001.36,0000.98
2021-11-07 01:23:00,,0825.3,4.99,0.00,30.2,29.2,00.0,39.0,31.9,05.9,0000.0,0004.50,0001.30,0000.97
2021-11-07 01:24:00,,0825.3,5.01,0.00,30.2,29.2,00.0,39.1,31.9,05.9,0000.0,0004.47,0001.30,0000.98
2021-11-07 01:25:00,,0825.3,5.01,0.00,30.2,29.3,00.0,39.1,31.9,05.9,0000.0,0003.31,0001.29,0001.00
2021-11-07 01:26:00,,0825.2,5.00,0.00,30.2,29.3,00.0,39.1,31.9,05.9,0000.0,0003.18,0001.32,0001.01
2021-11-07 01:27:00,,0825.2,4.99,0.00,30.2,29.3,00.0,39.1,31.9,05.9,0000.0,0003.20,0001.37,0001.02
2021-11-07 01:28:00,,0825.2,5.01,0.00,30.2,29.3,00.0,39.1,32.0,05.9,0000.0,0002.92,0001.38,0001.02
2021-11-07 01:29:00,,0825.3,4.98,0.00,30.2,29.3,00.0,39.1,32.0,05.9,0000.0,0003.24,0001.40,0001.01
2021-11-07 01:30:00,,0825.3,5.01,0.00,30.3,29.3,00.0,39.1,32.0,05.9,0000.0,0005.10,0001.42,0001.00
2021-11-07 01:31:00,,0825.3,4.99,0.00,30.3,29.3,00.0,39.2,32.0,05.9,0000.0,0005.65,0001.44,0001.00
2021-11-07 01:32:00,,0825.2,5.00,0.00,30.3,29.3,00.0,39.2,32.0,05.9,0000.0,0005.65,0001.44,0000.99
2021-11-07 01:33:00,,0825.2,5.01,0.00,30.3,29.3,00.0,39.2,32.0,05.9,0000.0,0005.61,0001.44,0000.99
2021-11-07 01:34:00,,0825.2,5.00,0.00,30.3,29.3,00.0,39.2,32.0,05.9,0000.0,0005.63,0001.44,0000.98
2021-11-07 01:35:00,,0825.2,4.99,0.00,30.3,29.3,00.0,39.2,32.0,05.9,0000.0,0005.61,0001.43,0000.98
2021-11-07 01:36:00,,0825.2,5.00,0.00,30.3,29.3,00.0,39.2,32.0,05.9,0000.0,0005.66,0001.45,0000.98
2021-11-07 01:37:00,,0825.2,5.00,0.00,30.3,28.8,00.0,39.3,31.9,05.9,0000.0,0005.36,0001.44,0000.97
2021-11-07 01:38:00,,0825.2,5.01,0.00,30.2,26.7,00.0,39.2,31.5,06.0,0000.0,0005.53,0001.45,0000.97
2021-11-07 01:39:00,,0825.2,5.00,0.00,30.1,26.1,00.0,39.2,31.4,06.0,0000.0,0005.84,0001.47,0000.97
2021-11-07 01:40:00,,0825.2,4.99,0.00,30.0,26.3,00.0,39.1,31.3,06.0,0000.0,0005.58,0001.45,0000.97
2021-11-07 01:41:00,,0825.2,5.00,0.00,29.9,26.8,00.0,39.1,31.4,06.1,0000.0,0005.43,0001.44,0000.97
2021-11-07 01:42:00,,0825.2,5.01,0.00,29.9,27.2,00.0,39.0,31.4,06.1,0000.0,0004.96,0001.40,0000.97
2021-11-07 01:43:00,,0825.2,5.00,0.00,29.8,27.6,00.0,39.0,31.4,06.2,0000.0,0004.95,0001.36,0000.98
2021-11-07 01:44:00,,0825.2,5.00,0.00,29.8,27.8,00.0,39.0,31.4,06.2,0000.0,0005.57,0001.36,0000.98
2021-11-07 01:45:00,,0825.2,5.00,0.00,29.8,28.1,00.0,38.9,31.5,06.2,0000.0,0005.60,0001.40,0000.98
2021-11-07 01:46:00,,0825.2,5.01,0.00,29.8,28.3,00.0,38.9,31.5,06.2,0000.0,0005.67,0001.42,0000.98
2021-11-07 01:47:00,,0825.2,4.99,0.00,29.8,28.4,00.0,38.9,31.6,06.2,0000.0,0005.68,0001.43,0000.98
2021-11-07 01:48:00,,0825.2,5.00,0.00,29.9,28.5,00.0,38.9,31.6,06.3,0000.0,0005.64,0001.43,0000.98
2021-11-07 01:49:00,,0825.2,5.00,0.00,29.9,28.6,00.0,38.9,31.6,06.2,0000.0,0005.86,0001.39,0000.99
2021-11-07 01:50:00,,0825.2,4.99,0.00,29.9,28.7,00.0,38.9,31.6,06.2,0000.0,0005.97,0001.34,0000.99
2021-11-07 01:51:00,,0825.2,5.01,0.00,29.9,28.7,00.0,38.9,31.7,06.2,0000.0,0005.62,0001.32,0000.99
2021-11-07 01:52:00,,0825.2,5.00,0.00,29.9,28.8,00.0,38.9,31.7,06.1,0000.0,0003.74,0001.30,0001.00
2021-11-07 01:53:00,,0825.2,5.01,0.00,29.9,28.8,00.0,38.9,31.7,06.2,0000.0,0003.65,0001.32,0000.99
2021-11-07 01:54:00,,0825.2,5.00,0.00,30.0,28.9,00.0,38.9,31.7,06.2,0000.0,0003.79,0001.37,0001.00
2021-11-07 01:55:00,,0825.2,4.99,0.00,30.0,28.9,00.0,38.9,31.7,06.2,0000.0,0003.17,0001.39,0000.99
2021-11-07 01:56:00,,0825.2,5.01,0.00,30.0,29.0,00.0,38.9,31.7,06.2,0000.0,0003.20,0001.38,0000.99
2021-11-07 01:57:00,,0825.2,5.01,0.00,30.0,29.0,00.0,38.9,31.7,06.2,0000.0,0003.29,0001.38,0000.99
2021-11-07 01:58:00,,0825.1,5.00,0.00,30.0,29.0,00.0,38.9,31.7,06.2,0000.0,0004.48,0001.35,0000.98
2021-11-07 01:59:00,,0825.1,4.99,0.00,30.0,28.9,00.0,39.0,31.7,06.2,0000.0,0004.65,0001.37,0000.98
